sat.trackr.live / text

‹ back to catalog

STARLINK-11560 [DTC]

NORAD 62917 · 2025-027L

PAYLOAD ACTIVE UNKNOWN

§ Identity

Operator
Country
US
Launch date
2025-02-08
Launch site
AFETR
Launch vehicle
Mass (kg)
RCS (m²)

Purposes: comms

External: N2YO · Heavens-Above · Gunter

§ Orbital elements

Epoch: 2026-09-21T15:50:22.564032Z

Period
91.67 min
Inclination
42.9983°
Eccentricity
0.0000663
Mean motion
15.70873505 rev/d
Perigee alt
356.0 km
Apogee alt
356.8 km
Semi-major
6,734.5 km
B*
1.2040e-3
RAAN
246.3771°
Arg perigee
49.1169°
Mean anomaly
310.9756°
Rev number
9,397

§ Raw data

STARLINK-11560 [DTC]1 62917U 25027L   26264.65998338  .00157214  00000+0  12040-2 0  99902 62917  42.9983 246.3771 0000663  49.1169 310.9756 15.70873505 93977

JSON: /api/v1/satellites/62917 · /tle

For live sub-satellite position, see the globe view (requires WebGL).

§ Visibility from observer

Set your observer location to see the next 7 days of passes ≥ 10°. The values pass through the URL so the page stays shareable.

No JS? Fill the form by hand. The geolocation button needs JavaScript.